Weather History for Grants-Milan, NM

Change the Weather History Date:

Friday, January 18, 2013

  Actual Average Record
Temperature  
Mean Temperature 30 °F -  
Max Temperature 53 °F 45 °F 64 °F (1971)
Min Temperature 8 °F 15 °F -12 °F (1987)
Degree Days  
Heating Degree Days 34    
Moisture  
Dew Point 13 °F    
Average Humidity 62    
Maximum Humidity 88    
Minimum Humidity 24    
Precipitation  
Precipitation 0.00 in - - ()
Sea Level Pressure  
Sea Level Pressure 30.35 in    
Wind  
Wind Speed 6 mph (NW)    
Max Wind Speed 9 mph    
Max Gust Speed 16 mph    
Visibility 10 miles    
Events      
Averages and records for this station are not official NWS values.
T = Trace of Precipitation, MM = Missing Value Source: NWS Daily Summary

Daily Weather History Graph

Daily Weather History Graph

Search for Another Location

Airport:

Trip Planner

Search our weather history database for the weather conditions in past years. The results will help you decide how hot, cold, wet, or windy it might be!

Date:

Astronomy

Jan. 18, 2013 Rise Set
Actual Time 7:18 AM MST 5:26 PM MST
Civil Twilight 6:51 AM MST 5:53 PM MST
Nautical Twilight 6:20 AM MST 6:24 PM MST
Astronomical Twilight 5:49 AM MST 6:54 PM MST
Moon 11:17 AM MST (1/18) 12:01 AM MST (1/18)
Length of Visible Light 11h 02m
Length of Day
10h 07m
Waxing Crescent, 48% of the Moon is Illuminated
Jan 18
Waxing Crescent
Jan 18
First Quarter
Jan 26
Full
Feb 3
Last Quarter
Feb 10
New

Hourly Weather History & Observations

Time (MST) Temp. Windchill Dew Point Humidity Pressure Visibility Wind Dir Wind Speed Gust Speed Precip Events Conditions
12:15 AM 14.4 °F 6.9 °F 8.4 °F 77% 30.40 in 10.0 mi NNW 4.6 mph - N/A   Clear
12:35 AM 12.6 °F 4.8 °F 6.6 °F 77% 30.40 in 10.0 mi North 4.6 mph - N/A   Clear
12:55 AM 12.7 °F 5.0 °F 8.2 °F 82% 30.40 in 10.0 mi NNW 4.6 mph - N/A   Clear
1:15 AM 12.2 °F 1.7 °F 7.3 °F 81% 30.40 in 10.0 mi NW 6.9 mph - N/A   Clear
1:35 AM 14.0 °F 5.1 °F 8.1 °F 77% 30.40 in 10.0 mi NW 5.8 mph - N/A   Clear
1:55 AM 12.0 °F 2.7 °F 6.8 °F 80% 30.41 in 10.0 mi NW 5.8 mph - N/A   Clear
2:15 AM 11.8 °F 2.5 °F 6.8 °F 80% 30.41 in 10.0 mi NW 5.8 mph - N/A   Clear
2:35 AM 10.8 °F 0.0 °F 7.0 °F 85% 30.40 in 10.0 mi NW 6.9 mph - N/A   Clear
2:55 AM 12.9 °F 3.8 °F 8.6 °F 83% 30.40 in 10.0 mi NW 5.8 mph - N/A   Clear
3:15 AM 12.6 °F 2.2 °F 8.6 °F 84% 30.40 in 10.0 mi NW 6.9 mph - N/A   Clear
3:35 AM 10.9 °F 1.4 °F 7.3 °F 85% 30.40 in 10.0 mi NW 5.8 mph - N/A   Clear
3:55 AM 10.9 °F 0.2 °F 7.2 °F 85% 30.38 in 10.0 mi NW 6.9 mph - N/A   Clear
4:15 AM 11.7 °F 0.0 °F 8.1 °F 85% 30.38 in 10.0 mi NW 8.1 mph - N/A   Clear
4:35 AM 11.3 °F 0.7 °F 7.9 °F 86% 30.38 in 10.0 mi NNW 6.9 mph - N/A   Clear
4:55 AM 10.4 °F -0.4 °F 6.8 °F 85% 30.38 in 10.0 mi NNW 6.9 mph - N/A   Clear
5:15 AM 9.1 °F -0.7 °F 5.9 °F 87% 30.38 in 10.0 mi NW 5.8 mph - N/A   Clear
5:35 AM 9.3 °F -1.7 °F 6.1 °F 87% 30.38 in 10.0 mi NW 6.9 mph - N/A   Clear
5:55 AM 9.1 °F -0.7 °F 5.5 °F 85% 30.38 in 10.0 mi NW 5.8 mph - N/A   Clear
6:15 AM 8.8 °F -3.5 °F 5.9 °F 88% 30.38 in 10.0 mi NW 8.1 mph - N/A   Clear
6:35 AM 9.5 °F -2.6 °F 6.6 °F 88% 30.38 in 10.0 mi NW 8.1 mph - N/A   Clear
6:55 AM 10.4 °F -0.4 °F 7.3 °F 87% 30.38 in 10.0 mi WNW 6.9 mph - N/A   Clear
7:15 AM 10.0 °F -0.9 °F 6.8 °F 87% 30.38 in 10.0 mi WNW 6.9 mph - N/A   Clear
7:35 AM 8.8 °F 0.4 °F 5.7 °F 87% 30.39 in 10.0 mi NW 4.6 mph - N/A   Clear
7:55 AM 10.8 °F 1.2 °F 6.8 °F 84% 30.40 in 10.0 mi NW 5.8 mph - N/A   Clear
8:15 AM 12.4 °F 2.0 °F 7.7 °F 82% 30.40 in 10.0 mi NW 6.9 mph - N/A   Clear
8:35 AM 17.1 °F 8.7 °F 10.4 °F 75% 30.40 in 10.0 mi NW 5.8 mph - N/A   Clear
8:55 AM 18.9 °F 9.8 °F 10.8 °F 71% 30.41 in 10.0 mi NW 6.9 mph - N/A   Clear
9:15 AM 22.3 °F 14.9 °F 12.4 °F 66% 30.42 in 10.0 mi NW 5.8 mph - N/A   Clear
9:35 AM 25.5 °F 18.7 °F 13.3 °F 60% 30.41 in 10.0 mi NW 5.8 mph - N/A   Clear
9:55 AM 28.6 °F 22.4 °F 14.0 °F 54% 30.41 in 10.0 mi North 5.8 mph - N/A   Clear
10:15 AM 31.3 °F 24.7 °F 14.7 °F 50% 30.41 in 10.0 mi NNW 6.9 mph - N/A   Clear
10:35 AM 33.1 °F 26.9 °F 15.4 °F 48% 30.41 in 10.0 mi North 6.9 mph - N/A   Clear
10:55 AM 35.8 °F 31.9 °F 15.4 °F 44% 30.40 in 10.0 mi NNW 4.6 mph - N/A   Clear
11:15 AM 38.3 °F 33.2 °F 15.8 °F 40% 30.38 in 10.0 mi NNW 6.9 mph - N/A   Clear
11:35 AM 40.6 °F 38.6 °F 16.0 °F 37% 30.37 in 10.0 mi North 3.5 mph - N/A   Clear
11:55 AM 43.0 °F 39.5 °F 16.3 °F 34% 30.35 in 10.0 mi NNW 5.8 mph - N/A   Clear
12:15 PM 45.1 °F 41.4 °F 16.9 °F 32% 30.34 in 10.0 mi North 6.9 mph - N/A   Clear
12:35 PM 47.1 °F - 17.4 °F 31% 30.32 in 10.0 mi NNW 5.8 mph - N/A   Clear
12:55 PM 48.6 °F - 17.8 °F 29% 30.31 in 10.0 mi NNW 3.5 mph - N/A   Clear
1:15 PM 49.5 °F - 18.0 °F 29% 30.30 in 10.0 mi WNW 4.6 mph - N/A   Clear
1:35 PM 50.5 °F - 18.0 °F 28% 30.29 in 10.0 mi NNW 6.9 mph - N/A   Clear
1:55 PM 51.6 °F - 17.8 °F 26% 30.29 in 10.0 mi NNW 8.1 mph - N/A   Clear
2:15 PM 52.0 °F - 17.8 °F 26% 30.29 in 10.0 mi North 6.9 mph - N/A   Clear
2:35 PM 53.1 °F - 17.6 °F 25% 30.28 in 10.0 mi WNW 5.8 mph - N/A   Clear
2:55 PM 53.2 °F - 17.4 °F 24% 30.28 in 10.0 mi NNW 6.9 mph - N/A   Clear
3:15 PM 53.8 °F - 17.6 °F 24% 30.28 in 10.0 mi NNW 8.1 mph - N/A   Clear
3:35 PM 53.2 °F - 17.6 °F 25% 30.28 in 10.0 mi NNW 5.8 mph - N/A   Clear
3:55 PM 52.9 °F - 17.6 °F 25% 30.28 in 10.0 mi North 9.2 mph - N/A   Clear
4:15 PM 52.2 °F - 17.6 °F 26% 30.28 in 10.0 mi NNW 6.9 mph - N/A   Clear
4:35 PM 51.3 °F - 18.1 °F 27% 30.28 in 10.0 mi NNE 5.8 mph - N/A   Clear
4:55 PM 49.6 °F - 18.3 °F 29% 30.28 in 10.0 mi North 9.2 mph - N/A   Clear
5:15 PM 45.9 °F 43.6 °F 17.6 °F 32% 30.28 in 10.0 mi North 4.6 mph - N/A   Clear
5:35 PM 38.8 °F 34.6 °F 16.0 °F 40% 30.29 in 10.0 mi NW 5.8 mph - N/A   Clear
5:55 PM 34.7 °F 29.6 °F 15.8 °F 46% 30.29 in 10.0 mi NW 5.8 mph - N/A   Clear
6:15 PM 31.3 °F 25.6 °F 15.1 °F 51% 30.30 in 10.0 mi NNW 5.8 mph - N/A   Clear
6:35 PM 30.0 °F 25.2 °F 15.6 °F 55% 30.30 in 10.0 mi NNW 4.6 mph - N/A   Clear
6:55 PM 26.4 °F 19.8 °F 14.0 °F 59% 30.30 in 10.0 mi WNW 5.8 mph - N/A   Clear
7:15 PM 25.5 °F 19.9 °F 14.9 °F 64% 30.30 in 10.0 mi NW 4.6 mph - N/A   Clear
7:35 PM 28.0 °F 19.3 °F 16.0 °F 61% 30.30 in 10.0 mi NW 9.2 mph - N/A   Clear
7:55 PM 26.6 °F 19.1 °F 15.8 °F 64% 30.30 in 10.0 mi NW 6.9 mph 16.1 mph N/A   Clear
8:15 PM 27.9 °F 24.0 °F 16.9 °F 63% 30.30 in 10.0 mi NW 3.5 mph - N/A   Clear
8:35 PM 23.9 °F 15.8 °F 15.1 °F 69% 30.30 in 10.0 mi WNW 6.9 mph - N/A   Clear
8:55 PM 25.5 °F 17.8 °F 15.4 °F 66% 30.31 in 10.0 mi WNW 6.9 mph - N/A   Clear
9:15 PM 23.9 °F 15.8 °F 15.3 °F 70% 30.32 in 10.0 mi WNW 6.9 mph - N/A   Clear
9:35 PM 24.6 °F 16.7 °F 16.2 °F 70% 30.32 in 10.0 mi WNW 6.9 mph - N/A   Clear
9:55 PM 23.9 °F 15.0 °F 16.5 °F 73% 30.32 in 10.0 mi NW 8.1 mph - N/A   Clear
10:15 PM 22.8 °F 13.6 °F 16.2 °F 76% 30.32 in 10.0 mi NW 8.1 mph - N/A   Clear
10:35 PM 21.6 °F 13.0 °F 15.6 °F 78% 30.32 in 10.0 mi NW 6.9 mph - N/A   Clear
10:55 PM 21.7 °F 14.3 °F 16.3 °F 80% 30.32 in 10.0 mi WNW 5.8 mph - N/A   Clear
11:15 PM 21.2 °F 12.6 °F 16.3 °F 82% 30.32 in 10.0 mi WNW 6.9 mph - N/A   Clear
11:35 PM 21.2 °F 13.6 °F 16.2 °F 81% 30.32 in 10.0 mi WNW 5.8 mph - N/A   Clear
11:55 PM 21.0 °F 13.4 °F 16.2 °F 81% 30.32 in 10.0 mi WNW 5.8 mph - N/A   Clear